Location: La Trinit�
(48.1620°N, 3.4512°W)
Time: 16:51:47
(UTC+00:00)

Cosmos 2278 Rocket - Pass Details

Date: 08 May 2021
Orbit: 841 x 845 km, 71.0° (Epoch: 24 June)

Event Time Altitude Azimuth Distance (km) Brightness Sun altitude
Exits shadow 21:05:56 18° 137° (SE) 1,971 3.5 -12.7°
Maximum altitude 21:08:26 24° 102° (ESE) 1,688 3.3 -13.0°
Drops below altitude 10° 21:12:50 10° 51° (NE) 2,467 4.6 -13.5°
Sets 21:15:42 0° 38° (NE) 3,407 5.5 -13.8°
